Flag Weather past 2 weeks in Kfar Saba, Israel

Now
59 °F

Clear.


Feels Like: 60 °F
Forecast: 56 / 68 °F
Wind: 3 mph from North

Location: Dov Airport

Current Time: Nov 24, 2014 at 8:02:41 PM

Latest Report: Nov 24, 2014 at 6:50 PM


Visibility: 10 mi

Pressure: 29.92 "Hg

Humidity: 82%

Dew point: 54 °F

Location of Kfar SabaLocation

Historic Weather in Kfar Saba — Graph

°F

Kfar Saba temperature yesterday

Maximum temperature yesterday: 72 °F (at 11:50 AM)
Minimum temperature yesterday: 57 °F (at 9:50 PM)
Average temperature yesterday: 63 °F

Past Weeks' High & Low Weather Summary

 TemperatureHumidityPressure
High82 °F (Nov 19, 1:50 PM)94% (Nov 10, 8:50 PM)30.15 "Hg (Nov 10, 8:50 PM)
Low57 °F (Nov 23, 9:50 PM)30% (Nov 19, 12:50 PM)29.86 "Hg (Nov 14, 12:50 PM)
Average69 °F67%29.96 "Hg
* Reported Nov 9 6:50 PM — Nov 24 6:50 PM, Kfar Saba, Weather by CustomWeather, © 2014

Note: Actual official high and low records may vary slightly from our data, if they occured in-between our weather recording intervals... More about our weather records

Advertising

Kfar Saba weather history for previous 24 hours

 ConditionsComfort  
Time TempWeatherWind HumidityBarometerVisibility
6:50 PM
Nov 24
59 °FClear.3 mph82%29.92 "Hg10 mi
5:50 PM61 °FClear.No wind83%29.89 "Hg10 mi
4:50 PM61 °FPassing clouds.3 mph83%29.89 "HgN/A
3:50 PM61 °FCool.2 mph83%29.86 "Hg6 mi
2:50 PM61 °FPassing clouds.7 mph83%29.86 "HgN/A
1:50 PM61 °FOvercast.8 mph83%29.86 "HgN/A
12:50 PM61 °FLight rain. Overcast.9 mph83%29.89 "HgN/A
11:50 AM59 °FLight rain. Overcast.7 mph88%29.89 "HgN/A
10:50 AM61 °FLight rain. Broken clouds.7 mph83%29.92 "HgN/A
9:50 AM61 °FPartly sunny.6 mph83%29.95 "HgN/A
8:50 AM61 °FBroken clouds.3 mph83%29.92 "HgN/A
7:50 AM59 °FScattered clouds.8 mph88%29.89 "HgN/A
6:50 AM57 °FScattered clouds.9 mph88%29.89 "HgN/A
5:50 AM57 °FPassing clouds.9 mph88%29.89 "HgN/A
4:50 AM57 °FPassing clouds.9 mph88%29.89 "HgN/A
11:00 PM
Nov 23
57 °FPassing clouds.8 mph94%29.92 "HgN/A
9:50 PM57 °FPassing clouds.7 mph94%29.92 "HgN/A
8:50 PM59 °FPassing clouds.7 mph88%29.92 "HgN/A
Weather by CustomWeather, © 2014

See weather overviewHow to use our weather pages